Other Public Products
Issued by NWS Grand Forks, ND

Home | Current Version | Previous Version | Text Only | Print | Product List | Glossary Off
Versions: 1 2 3 4 5 6 7 8 9 10 11 12 13 14 15 16 17 18 19 20 21 22 23 24 25 26 27 28 29 30 31 32 33 34 35 36 37 38 39 40 41 42 43 44 45 46 47 48 49 50

000
FPUS83 KFGF 242110
OPUFGF
PRAIRIE TO PINES WEATHER ROUNDUP
NATIONAL WEATHER SERVICE EASTERN NORTH DAKOTA/GRAND FORKS ND
300 PM CST TUE JAN 24 2017

 **SATELLITE DATA USED TO AUGMENT SKY COVER AT AUTOMATED STATIONS**
 *****  WEATHER ACROSS EASTERN NORTH DAKOTA  *****

CITY           SKY/WX    TMP DP  RH WIND       PRES   REMARKS
GRAND FORKS    CLOUDY    28  21  75 NW6       29.85S WCI  22
GRAND FORKS AF CLOUDY    27  22  81 NW6       29.86R WCI  20
GRAND CITY NWS NOT AVBL
BUXTON         NOT AVBL
DEVILS LAKE    CLOUDY    23  21  92 NW7       29.85R WCI  15
FARGO          CLOUDY    30  22  72 N7        29.85F WCI  23
WAHPETON ARPT  CLOUDY    30  27  86 N10       29.84F WCI  21
$$

 *****  WEATHER ACROSS CENTRAL AND WESTERN NORTH DAKOTA  *****

CITY           SKY/WX    TMP DP  RH WIND       PRES   REMARKS
JAMESTOWN      CLOUDY    25  21  85 NW13      29.84R WCI  14
BISMARCK       CLOUDY    26  18  71 NW14      29.87S WCI  14
MINOT          CLOUDY    23  17  78 W15       29.87R WCI  10
MINOT AFB      NOT AVBL
GARRISON         N/A     23  18  81 NW16      29.85F WCI  10
WILLISTON      CLOUDY    20  14  77 NW8       29.91S WCI  10
DICKINSON      CLOUDY    21  15  78 NW13      29.82S WCI   9
HETTINGER      CLOUDY    20  16  84 NW15      29.84S WCI   6
$$

 *****  OTHER OBSERVATIONS NORTHEAST NORTH DAKOTA  *****

CITY           SKY/WX    TMP DP  RH WIND       PRES   REMARKS
WALHALLA       NOT AVBL
LANGDON        NOT AVBL
CAVALIER       CLOUDY    28  25  86 N8        29.85S WCI  20
GRAFTON        CLOUDY    28  25  86 N5        29.87S WCI  23
CANDO          NOT AVBL
FORT TOTTEN      N/A     24  22  91 NW6       29.95S WCI  17
ROLLA            N/A    N/A N/A N/A MISG        N/A
RUGBY            N/A     21  19  93 NW14      29.85R WCI   8
 ***** THE ABOVE OBSERVATIONS ARE NON NWS ARE NOT QUALITY
        CONTROLLED AND MAY MIS-REPORT RAIN FOR SNOW...
$$

 *****  OTHER OBSERVATIONS SOUTHEAST NORTH DAKOTA *****

CITY           SKY/WX    TMP DP  RH WIND       PRES   REMARKS
COOPERSTOWN    CLOUDY    23  21  93 NW7G15    29.84S WCI  15
VALLEY CITY    CLOUDY    27  27 100 NW12      29.85S WCI  16
OAKES          NOT AVBL
GWINNER        CLOUDY    28  25  86 N8        29.84R WCI  20
SHEYENNE NWR     N/A     28  20  72 N6        29.95S WCI  22
BUFFALO        NOT AVBL
WYNDMERE       NOT AVBL
 ***** THE ABOVE OBSERVATIONS ARE NON NWS ARE NOT QUALITY
       CONTROLLED AND MAY MIS-REPORT RAIN FOR SNOW...
$$

  *****  WEATHER ACROSS NORTHERN MINNESOTA  *****

CITY           SKY/WX    TMP DP  RH WIND       PRES   REMARKS
FLAG ISLAND    CLOUDY    27  23  86 SW7       29.82R WCI  19
WARROAD        CLOUDY    27  23  86 SW5       29.84R WCI  21
ROSEAU         PTSUNNY   28  23  80 SW5       29.83S WCI  23
HALLOCK        CLOUDY    28  25  86 NW5       29.85R WCI  23
THF RVR FALLS  CLOUDY    26  22  84 CALM      29.85S
HALSTAD          N/A     27  21  79 NW5         N/A  WCI  22
FOSSTON        CLOUDY    25  19  80 NW3       29.84S
BAUDETTE       CLOUDY    26  20  77 CALM      29.83R
WASKISH        CLOUDY    25  21  86 W7        29.84R WCI  17
CROOKSTON      CLOUDY    27  21  80 CALM      29.87S
$$
  *****  WEATHER ACROSS CENTRAL AND WEST MINNESOTA  *****

CITY           SKY/WX    TMP DP  RH WIND       PRES   REMARKS
BEMIDJI        CLOUDY    27  23  84 W7        29.82S WCI  19
PARK RAPIDS    CLOUDY    30  23  75 CALM      29.80S
WADENA         CLOUDY    28  25  86 CALM      29.82S
DETROIT LAKES  CLOUDY    28  27  93 NW5       29.83S WCI  23
MOORHEAD       CLOUDY    27  21  80 VRB6      29.86S WCI  20
FERGUS FALLS   PTSUNNY   30  25  80 N5        29.86F
ELBOW LAKE     CLOUDY    31  27  86 N6        29.81F FOG
MORRIS MN      CLOUDY    34  28  80 NE6       29.79S
STAPLES        CLOUDY    30  25  80 CALM      29.83R
WHEATON        PTSUNNY   30  27  86 N8        29.83S WCI  23
$$
  *****  WEATHER ELSEWHERE ACROSS MINNESOTA  *****

CITY           SKY/WX    TMP DP  RH WIND       PRES   REMARKS
DULUTH         CLOUDY    31  25  78 NE7       29.81R WCI  24
INTRNTL FALLS  CLOUDY    27  21  78 W8        29.83R WCI  19
ELY            CLOUDY    28  27  93 CALM      29.80S
CLOQUET        CLOUDY    30  25  80 CALM      29.81S
BRAINERD       CLOUDY    29  24  82 SW5       29.85R WCI  24
HIBBING        CLOUDY    28  25  88 NW3       29.81R
ALEXANDRIA     CLOUDY    32  26  78 N9        29.78F WCI  24
SAINT CLOUD    CLOUDY    32  26  78 NE7       29.80F
MINNEAPOLIS    CLOUDY    32  26  78 E9        29.81F WCI  24
$$

  *****  WEATHER ACROSS SOUTH DAKOTA  *****

CITY           SKY/WX    TMP DP  RH WIND       PRES   REMARKS
SIOUX FALLS    CLOUDY    31  29  92 NE17      29.68F WCI  19
BROOKINGS      CLOUDY    28  27  96 NE14      29.71F FOG     WCI  17
WATERTOWN      CLOUDY    29  25  85 NE13      29.74S WCI  19
HURON          LGT SNOW  31  30  96 NE10      29.75F FOG     WCI  22
SISSETON         N/A     31  28  89 NE13      29.80S WCI  21
ABERDEEN       LGT SNOW  27  22  81 N13       29.81F WCI  16
MITCHELL       LGT SNOW  32  30  92 NE16      29.72F VSB 3/4 WCI  21
PIERRE         LGT SNOW  26  23  88 N22       29.75F VSB 3/4 WCI  12
MOBRIDGE       LGT SNOW  24  18  77 N13       29.81R WCI  12
RAPID CITY     LGT SNOW  20  17  88 N20G26    29.77S VSB 3/4 WCI   4
$$

  *****  SOME WEATHER IN NEARBY STATES *****

CITY           SKY/WX    TMP DP  RH WIND       PRES   REMARKS
GLASGOW MT     CLOUDY    19  14  81 NW14      29.91S WCI   6
GREAT FALLS MT PTSUNNY   26  17  68 SW8       29.87F WCI  18
CHEYENNE WY    CLOUDY    18  12  77 N15G22    29.59R WCI   4
SCOTTSBLUFF NE CLOUDY    25  16  68 N20       29.69R WCI  11
OMAHA NE       CLOUDY    35  28  75 NE13      29.55F
DES MOINES IA  CLOUDY    33  30  88 E10G21    29.63F WCI  25
DAVENPORT IA   CLOUDY    36  32  85 SE10      29.79F
CHICAGO IL     CLOUDY    36  31  82 S5        29.85R
EAU CLAIRE WI  CLOUDY    34  28  79 E5        29.81S
LA CROSSE WI   CLOUDY    38  30  73 E5        29.81S
$$

  *****  SOME NATIONAL WEATHER *****

CITY           SKY/WX    TMP DP  RH WIND       PRES   REMARKS
LA GUARDIA NY  RAIN      39  34  82 NW22G29   29.33R
RALEIGH NC     FAIR      61  38  42 NW9G21    29.65R
ATLANTA GA     FAIR      61  37  41 W10       29.83R
NEW ORLEANS LA FAIR      67  51  56 S10       29.91S
OKLAHOMA CITY  FAIR      74  32  21 SW28G33   29.48F
ALBUQUERQUE NM FAIR      41  13  31 W26G40    29.73F
SALT LAKE CITY FLURRIES  30  24  78 CALM      29.83S
LOS ANGELES CA PTSUNNY   53  41  63 W8        30.02F
BOISE ID       FAIR      33  23  66 NW13      29.88R WCI  24
SEATTLE WA     PTSUNNY   40  36  86 CALM      30.14S
$$

*** WEATHER ACROSS MANITOBA...SASKATCHEWAN AND ONTARIO ***
                ***ONTARIO***

CITY           SKY/WX    TMP DP  RH WIND       PRES   REMARKS
GERALDTON      CLOUDY    34  32  93 NW6       29.77S FOG
THUNDER BAY    CLOUDY    37  28  70 NW7       29.81R
SIOUX LOOKOUT  CLOUDY    27  25  93 NW7       29.80S WCI  19
TORONTO        CLOUDY    34  28  80 N8        29.65S
BIG TROUT LK   CLOUDY    30  28  93 CALM      29.79S
PICKLE LAKE    CLOUDY    32  32 100 W2        29.76F
DRYDEN         CLOUDY    25  23  93 W7        29.80S WCI  17
KENORA         FLURRIES  25  23  93 SW8       29.80S WCI  16
$$
                *** MANITOBA***

CITY           SKY/WX    TMP DP  RH WIND       PRES   REMARKS
BRANDON        PTSUNNY   23  19  86 NW13      29.85R WCI  11
DAUPHIN        FLURRIES  23  18  80 N7        29.88S WCI  15
ISLAND LAKE    LGT SNOW  30  28  93 NW5       29.79S
PILOT MOUND      N/A     23  19  86 NW10        N/A  WCI  12
THE PAS        CLOUDY    14   7  73 NW13      29.93R WCI   0
THOMPSON       FLURRIES  18  12  79 NW6       29.88R WCI   9
WINNIPEG       FLURRIES  25  21  86 NW15      29.84R WCI  12
LYNN LAKE      FLURRIES  10   7  85 NW7       29.89R WCI   0
CHURCHILL      FLURRIES  12  10  92 NW5       29.93S WCI   4
GILLAM         FLURRIES  18  14  86 N6        29.89R WCI   9
$$
                ***SASKATCHEWAN***

CITY           SKY/WX    TMP DP  RH WIND       PRES   REMARKS
ESTEVAN        FLURRIES  18  14  86 NW14      29.89R WCI   4
KINDERSLEY     FLURRIES  12   9  85 NW5       29.93S WCI   4
LLOYDMINSTER   MOSUNNY    7   5  92 W5        29.93F WCI  -2
PRINCE ALBERT  FLURRIES  12   5  73 NW3       29.96F
REGINA         FLURRIES  18  12  79 NW12      29.91R WCI   5
YORKTON        CLOUDY    16  12  86 NW10      29.87S WC


USA.gov is the U.S. government's official web portal to all federal, state and local government web resources and services.